Year,Month,Day,Hour,Minute,Value (Times are PST for temperature in C)
2019,09,30,00,00,3.20
2019,09,30,00,01,3.20
2019,09,30,00,02,3.20
2019,09,30,00,03,3.20
2019,09,30,00,04,3.10
2019,09,30,00,05,3.10
2019,09,30,00,06,3.10
2019,09,30,00,07,3.10
2019,09,30,00,08,3.10
2019,09,30,00,09,3.10
2019,09,30,00,10,3.10
2019,09,30,00,11,3.00
2019,09,30,00,12,3.00
2019,09,30,00,13,3.00
2019,09,30,00,14,3.00
2019,09,30,00,15,3.00
2019,09,30,00,16,3.00
2019,09,30,00,17,3.00
2019,09,30,00,18,3.00
2019,09,30,00,19,3.00
2019,09,30,00,20,3.00
2019,09,30,00,21,3.00
2019,09,30,00,22,3.00
2019,09,30,00,23,3.00
2019,09,30,00,24,3.00
2019,09,30,00,25,3.00
2019,09,30,00,26,2.90
2019,09,30,00,27,2.90
2019,09,30,00,28,2.90
2019,09,30,00,29,2.90
2019,09,30,00,30,2.90
2019,09,30,00,31,2.90
2019,09,30,00,32,2.90
2019,09,30,00,33,2.90
2019,09,30,00,34,2.80
2019,09,30,00,35,2.80
2019,09,30,00,36,2.80
2019,09,30,00,37,2.80
2019,09,30,00,38,2.80
2019,09,30,00,39,2.80
2019,09,30,00,40,2.70
2019,09,30,00,41,2.70
2019,09,30,00,42,2.70
2019,09,30,00,43,2.70
2019,09,30,00,44,2.70
2019,09,30,00,45,2.70
2019,09,30,00,46,2.70
2019,09,30,00,47,2.60
2019,09,30,00,48,2.60
2019,09,30,00,49,2.60
2019,09,30,00,50,2.60
2019,09,30,00,51,2.60
2019,09,30,00,52,2.50
2019,09,30,00,53,2.50
2019,09,30,00,54,2.50
2019,09,30,00,55,2.50
2019,09,30,00,56,2.50
2019,09,30,00,57,2.40
2019,09,30,00,58,2.40
2019,09,30,00,59,2.40
2019,09,30,01,00,2.40
2019,09,30,01,01,2.40
2019,09,30,01,02,2.40
2019,09,30,01,03,2.40
2019,09,30,01,04,2.40
2019,09,30,01,05,2.40
2019,09,30,01,06,2.30
2019,09,30,01,07,2.30
2019,09,30,01,08,2.30
2019,09,30,01,09,2.30
2019,09,30,01,10,2.30
2019,09,30,01,11,2.30
2019,09,30,01,12,2.30
2019,09,30,01,13,2.30
2019,09,30,01,14,2.20
2019,09,30,01,15,2.20
2019,09,30,01,16,2.20
2019,09,30,01,17,2.20
2019,09,30,01,18,2.20
2019,09,30,01,19,2.20
2019,09,30,01,20,2.20
2019,09,30,01,21,2.20
2019,09,30,01,22,2.20
2019,09,30,01,23,2.20
2019,09,30,01,24,2.20
2019,09,30,01,25,2.20
2019,09,30,01,26,2.20
2019,09,30,01,27,2.20
2019,09,30,01,28,2.20
2019,09,30,01,29,2.20
2019,09,30,01,30,2.10
2019,09,30,01,31,2.10
2019,09,30,01,32,2.10
2019,09,30,01,33,2.10
2019,09,30,01,34,2.10
2019,09,30,01,35,2.10
2019,09,30,01,36,2.10
2019,09,30,01,37,2.10
2019,09,30,01,38,2.10
2019,09,30,01,39,2.10
2019,09,30,01,40,2.10
2019,09,30,01,41,2.10
2019,09,30,01,42,2.10
2019,09,30,01,43,2.00
2019,09,30,01,44,2.00
2019,09,30,01,45,2.00
2019,09,30,01,46,2.00
2019,09,30,01,47,2.00
2019,09,30,01,48,2.00
2019,09,30,01,49,2.00
2019,09,30,01,50,1.90
2019,09,30,01,51,1.90
2019,09,30,01,52,1.90
2019,09,30,01,53,1.90
2019,09,30,01,54,1.90
2019,09,30,01,55,1.90
2019,09,30,01,56,1.90
2019,09,30,01,57,1.90
2019,09,30,01,58,1.90
2019,09,30,01,59,1.90
2019,09,30,02,00,1.90
2019,09,30,02,01,1.90
2019,09,30,02,02,1.90
2019,09,30,02,03,1.90
2019,09,30,02,04,1.90
2019,09,30,02,05,1.90
2019,09,30,02,06,1.90
2019,09,30,02,07,1.90
2019,09,30,02,08,1.90
2019,09,30,02,09,1.90
2019,09,30,02,10,1.90
2019,09,30,02,11,1.80
2019,09,30,02,12,1.80
2019,09,30,02,13,1.80
2019,09,30,02,14,1.80
2019,09,30,02,15,1.80
2019,09,30,02,16,1.80
2019,09,30,02,17,1.80
2019,09,30,02,18,1.80
2019,09,30,02,19,1.80
2019,09,30,02,20,1.80
2019,09,30,02,21,1.80
2019,09,30,02,22,1.70
2019,09,30,02,23,1.70
2019,09,30,02,24,1.70
2019,09,30,02,25,1.70
2019,09,30,02,26,1.70
2019,09,30,02,27,1.70
2019,09,30,02,28,1.60
2019,09,30,02,29,1.60
2019,09,30,02,30,1.60
2019,09,30,02,31,1.60
2019,09,30,02,32,1.60
2019,09,30,02,33,1.50
2019,09,30,02,34,1.50
2019,09,30,02,35,1.50
2019,09,30,02,36,1.50
2019,09,30,02,37,1.50
2019,09,30,02,38,1.40
2019,09,30,02,39,1.40
2019,09,30,02,40,1.40
2019,09,30,02,41,1.40
2019,09,30,02,42,1.40
2019,09,30,02,43,1.40
2019,09,30,02,44,1.40
2019,09,30,02,45,1.40
2019,09,30,02,46,1.40
2019,09,30,02,47,1.40
2019,09,30,02,48,1.40
2019,09,30,02,49,1.40
2019,09,30,02,50,1.40
2019,09,30,02,51,1.40
2019,09,30,02,52,1.40
2019,09,30,02,53,1.40
2019,09,30,02,54,1.40
2019,09,30,02,55,1.40
2019,09,30,02,56,1.30
2019,09,30,02,57,1.30
2019,09,30,02,58,1.30
2019,09,30,02,59,1.30
2019,09,30,03,00,1.30
2019,09,30,03,01,1.30
2019,09,30,03,02,1.30
2019,09,30,03,03,1.30
2019,09,30,03,04,1.20
2019,09,30,03,05,1.20
2019,09,30,03,06,1.20
2019,09,30,03,07,1.20
2019,09,30,03,08,1.20
2019,09,30,03,09,1.20
2019,09,30,03,10,1.20
2019,09,30,03,11,1.20
2019,09,30,03,12,1.20
2019,09,30,03,13,1.20
2019,09,30,03,14,1.20
2019,09,30,03,15,1.20
2019,09,30,03,16,1.20
2019,09,30,03,17,1.10
2019,09,30,03,18,1.10
2019,09,30,03,19,1.10
2019,09,30,03,20,1.10
2019,09,30,03,21,1.10
2019,09,30,03,22,1.10
2019,09,30,03,23,1.10
2019,09,30,03,24,1.10
2019,09,30,03,25,1.10
2019,09,30,03,26,1.10
2019,09,30,03,27,1.10
2019,09,30,03,28,1.10
2019,09,30,03,29,1.10
2019,09,30,03,30,1.10
2019,09,30,03,31,1.10
2019,09,30,03,32,1.10
2019,09,30,03,33,1.10
2019,09,30,03,34,1.10
2019,09,30,03,35,1.10
2019,09,30,03,36,1.10
2019,09,30,03,37,1.10
2019,09,30,03,38,1.10
2019,09,30,03,39,1.10
2019,09,30,03,40,1.10
2019,09,30,03,41,1.10
2019,09,30,03,42,1.10
2019,09,30,03,43,1.10
2019,09,30,03,44,1.10
2019,09,30,03,45,1.10
2019,09,30,03,46,1.10
2019,09,30,03,47,1.10
2019,09,30,03,48,1.10
2019,09,30,03,49,1.10
2019,09,30,03,50,1.10
2019,09,30,03,51,1.10
2019,09,30,03,52,1.00
2019,09,30,03,53,1.00
2019,09,30,03,54,1.00
2019,09,30,03,55,1.00
2019,09,30,03,56,0.90
2019,09,30,03,57,0.90
2019,09,30,03,58,0.90
2019,09,30,03,59,0.90
2019,09,30,04,00,0.90
2019,09,30,04,01,0.90
2019,09,30,04,02,0.90
2019,09,30,04,03,0.80
2019,09,30,04,04,0.80
2019,09,30,04,05,0.80
2019,09,30,04,06,0.80
2019,09,30,04,07,0.80
2019,09,30,04,08,0.80
2019,09,30,04,09,0.80
2019,09,30,04,10,0.80
2019,09,30,04,11,0.80
2019,09,30,04,12,0.80
2019,09,30,04,13,0.80
2019,09,30,04,14,0.80
2019,09,30,04,15,0.80
2019,09,30,04,16,0.80
2019,09,30,04,17,0.80
2019,09,30,04,18,0.80
2019,09,30,04,19,0.80
2019,09,30,04,20,0.80
2019,09,30,04,21,0.80
2019,09,30,04,22,0.80
2019,09,30,04,23,0.80
2019,09,30,04,24,0.70
2019,09,30,04,25,0.70
2019,09,30,04,26,0.70
2019,09,30,04,27,0.70
2019,09,30,04,28,0.70
2019,09,30,04,29,0.70
2019,09,30,04,30,0.70
2019,09,30,04,31,0.70
2019,09,30,04,32,0.60
2019,09,30,04,33,0.60
2019,09,30,04,34,0.60
2019,09,30,04,35,0.60
2019,09,30,04,36,0.60
2019,09,30,04,37,0.50
2019,09,30,04,38,0.50
2019,09,30,04,39,0.50
2019,09,30,04,40,0.50
2019,09,30,04,41,0.40
2019,09,30,04,42,0.40
2019,09,30,04,43,0.40
2019,09,30,04,44,0.40
2019,09,30,04,45,0.40
2019,09,30,04,46,0.40
2019,09,30,04,47,0.40
2019,09,30,04,48,0.40
2019,09,30,04,49,0.40
2019,09,30,04,50,0.30
2019,09,30,04,51,0.40
2019,09,30,04,52,0.40
2019,09,30,04,53,0.40
2019,09,30,04,54,0.40
2019,09,30,04,55,0.40
2019,09,30,04,56,0.40
2019,09,30,04,57,0.40
2019,09,30,04,58,0.40
2019,09,30,04,59,0.40
2019,09,30,05,00,0.40
2019,09,30,05,01,0.40
2019,09,30,05,02,0.40
2019,09,30,05,03,0.40
2019,09,30,05,04,0.40
2019,09,30,05,05,0.30
2019,09,30,05,06,0.30
2019,09,30,05,07,0.30
2019,09,30,05,08,0.30
2019,09,30,05,09,0.30
2019,09,30,05,10,0.30
2019,09,30,05,11,0.30
2019,09,30,05,12,0.30
2019,09,30,05,13,0.30
2019,09,30,05,14,0.30
2019,09,30,05,15,0.30
2019,09,30,05,16,0.30
2019,09,30,05,17,0.30
2019,09,30,05,18,0.30
2019,09,30,05,19,0.20
2019,09,30,05,20,0.20
2019,09,30,05,21,0.20
2019,09,30,05,22,0.20
2019,09,30,05,23,0.20
2019,09,30,05,24,0.20
2019,09,30,05,25,0.20
2019,09,30,05,26,0.20
2019,09,30,05,27,0.20
2019,09,30,05,28,0.20
2019,09,30,05,29,0.20
2019,09,30,05,30,0.20
2019,09,30,05,31,0.20
2019,09,30,05,32,0.20
2019,09,30,05,33,0.20
2019,09,30,05,34,0.20
2019,09,30,05,35,0.20
2019,09,30,05,36,0.20
2019,09,30,05,37,0.20
2019,09,30,05,38,0.20
2019,09,30,05,39,0.20
2019,09,30,05,40,0.10
2019,09,30,05,41,0.10
2019,09,30,05,42,0.10
2019,09,30,05,43,0.10
2019,09,30,05,44,0.10
2019,09,30,05,45,0.10
2019,09,30,05,46,0.10
2019,09,30,05,47,0.10
2019,09,30,05,48,0.10
2019,09,30,05,49,0.10
2019,09,30,05,50,0.10
2019,09,30,05,51,0.10
2019,09,30,05,52,0.10
2019,09,30,05,53,0.10
2019,09,30,05,54,0.10
2019,09,30,05,55,0.10
2019,09,30,05,56,0.10
2019,09,30,05,57,0.10
2019,09,30,05,58,0.10
2019,09,30,05,59,0.10
2019,09,30,06,00,0.10
2019,09,30,06,01,0.10
2019,09,30,06,02,0.10
2019,09,30,06,03,0.10
2019,09,30,06,04,0.10
2019,09,30,06,05,0.10
2019,09,30,06,06,0.10
2019,09,30,06,07,0.10
2019,09,30,06,08,0.10
2019,09,30,06,09,0.10
2019,09,30,06,10,0.10
2019,09,30,06,11,0.10
2019,09,30,06,12,0.10
2019,09,30,06,13,0.10
2019,09,30,06,14,0.10
2019,09,30,06,15,0.10
2019,09,30,06,16,0.10
2019,09,30,06,17,0.10
2019,09,30,06,18,0.10
2019,09,30,06,19,0.10
2019,09,30,06,20,0.10
2019,09,30,06,21,0.10
2019,09,30,06,22,0.10
2019,09,30,06,23,0.10
2019,09,30,06,24,0.10
2019,09,30,06,25,0.10
2019,09,30,06,26,0.00
2019,09,30,06,27,0.00
2019,09,30,06,28,0.00
2019,09,30,06,29,0.00
2019,09,30,06,30,0.00
2019,09,30,06,31,0.00
2019,09,30,06,32,0.00
2019,09,30,06,33,0.00
2019,09,30,06,34,0.00
2019,09,30,06,35,0.00
2019,09,30,06,36,0.00
2019,09,30,06,37,0.00
2019,09,30,06,38,0.00
2019,09,30,06,39,0.00
2019,09,30,06,40,0.00
2019,09,30,06,41,0.00
2019,09,30,06,42,0.00
2019,09,30,06,43,0.00
2019,09,30,06,44,0.00
2019,09,30,06,45,0.00
2019,09,30,06,46,0.00
2019,09,30,06,47,0.00
2019,09,30,06,48,0.00
2019,09,30,06,49,0.00
2019,09,30,06,50,0.00
2019,09,30,06,51,0.00
2019,09,30,06,52,0.00
2019,09,30,06,53,0.00
2019,09,30,06,54,0.00
2019,09,30,06,55,0.00
2019,09,30,06,56,0.00
2019,09,30,06,57,0.00
2019,09,30,06,58,0.00
2019,09,30,06,59,0.00
2019,09,30,07,00,0.00
2019,09,30,07,01,0.00
2019,09,30,07,02,0.00
2019,09,30,07,03,-0.10
2019,09,30,07,04,-0.10
2019,09,30,07,05,-0.10
2019,09,30,07,06,-0.10
2019,09,30,07,07,-0.10
2019,09,30,07,08,-0.10
2019,09,30,07,09,-0.10
2019,09,30,07,10,-0.10
2019,09,30,07,11,-0.10
2019,09,30,07,12,-0.10
2019,09,30,07,13,-0.20
2019,09,30,07,14,-0.20
2019,09,30,07,15,-0.20
2019,09,30,07,16,-0.20
2019,09,30,07,17,-0.20
2019,09,30,07,18,-0.20
2019,09,30,07,19,-0.20
2019,09,30,07,20,-0.20
2019,09,30,07,21,-0.20
2019,09,30,07,22,-0.20
2019,09,30,07,23,-0.20
2019,09,30,07,24,-0.20
2019,09,30,07,25,-0.20
2019,09,30,07,26,-0.20
2019,09,30,07,27,-0.20
2019,09,30,07,28,-0.20
2019,09,30,07,29,-0.20
2019,09,30,07,30,-0.20
2019,09,30,07,31,-0.20
2019,09,30,07,32,-0.20
2019,09,30,07,33,-0.20
2019,09,30,07,34,-0.30
2019,09,30,07,35,-0.30
2019,09,30,07,36,-0.30
2019,09,30,07,37,-0.30
2019,09,30,07,38,-0.30
2019,09,30,07,39,-0.30
2019,09,30,07,40,-0.30
2019,09,30,07,41,-0.30
2019,09,30,07,42,-0.30
2019,09,30,07,43,-0.30
2019,09,30,07,44,-0.30
2019,09,30,07,45,-0.30
2019,09,30,07,46,-0.30
2019,09,30,07,47,-0.30
2019,09,30,07,48,-0.30
2019,09,30,07,49,-0.30
2019,09,30,07,50,-0.30
2019,09,30,07,51,-0.30
2019,09,30,07,52,-0.30
2019,09,30,07,53,-0.30
2019,09,30,07,54,-0.30
2019,09,30,07,55,-0.30
2019,09,30,07,56,-0.30
2019,09,30,07,57,-0.30
2019,09,30,07,58,-0.30
2019,09,30,07,59,-0.30
2019,09,30,08,00,-0.30
2019,09,30,08,01,-0.30
2019,09,30,08,02,-0.30
2019,09,30,08,03,-0.20
2019,09,30,08,04,-0.20
2019,09,30,08,05,-0.20
2019,09,30,08,06,-0.20
2019,09,30,08,07,-0.20
2019,09,30,08,08,-0.20
2019,09,30,08,09,-0.20
2019,09,30,08,10,-0.20
2019,09,30,08,11,-0.20
2019,09,30,08,12,-0.20
2019,09,30,08,13,-0.20
2019,09,30,08,14,-0.20
2019,09,30,08,15,-0.20
2019,09,30,08,16,-0.20
2019,09,30,08,17,-0.20
2019,09,30,08,18,-0.20
2019,09,30,08,19,-0.20
2019,09,30,08,20,-0.20
2019,09,30,08,21,-0.20
2019,09,30,08,22,-0.20
2019,09,30,08,23,-0.20
2019,09,30,08,24,-0.20
2019,09,30,08,25,-0.20
2019,09,30,08,26,-0.20
2019,09,30,08,27,-0.20
2019,09,30,08,28,-0.20
2019,09,30,08,29,-0.20
2019,09,30,08,30,-0.20
2019,09,30,08,31,-0.20
2019,09,30,08,32,-0.10
2019,09,30,08,33,-0.10
2019,09,30,08,34,-0.10
2019,09,30,08,35,-0.10
2019,09,30,08,36,-0.10
2019,09,30,08,37,-0.10
2019,09,30,08,38,-0.10
2019,09,30,08,39,-0.10
2019,09,30,08,40,-0.10
2019,09,30,08,41,-0.10
2019,09,30,08,42,-0.10
2019,09,30,08,43,-0.10
2019,09,30,08,44,0.00
2019,09,30,08,45,0.00
2019,09,30,08,46,0.00
2019,09,30,08,47,0.10
2019,09,30,08,48,0.10
2019,09,30,08,49,0.10
2019,09,30,08,50,0.20
2019,09,30,08,51,0.20
2019,09,30,08,52,0.20
2019,09,30,08,53,0.30
2019,09,30,08,54,0.40
2019,09,30,08,55,0.50
2019,09,30,08,56,0.50
2019,09,30,08,57,0.60
2019,09,30,08,58,0.70
2019,09,30,08,59,0.70
2019,09,30,09,00,0.80
2019,09,30,09,01,0.80
2019,09,30,09,02,0.90
2019,09,30,09,03,0.90
2019,09,30,09,04,1.00
2019,09,30,09,05,1.10
2019,09,30,09,06,1.10
2019,09,30,09,07,1.20
2019,09,30,09,08,1.20
2019,09,30,09,09,1.30
2019,09,30,09,10,1.30
2019,09,30,09,11,1.30
2019,09,30,09,12,1.30
2019,09,30,09,13,1.40
2019,09,30,09,14,1.50
2019,09,30,09,15,1.60
2019,09,30,09,16,1.70
2019,09,30,09,17,1.70
2019,09,30,09,18,1.80
2019,09,30,09,19,1.80
2019,09,30,09,20,1.90
2019,09,30,09,21,1.90
2019,09,30,09,22,2.00
2019,09,30,09,23,2.00
2019,09,30,09,24,2.10
2019,09,30,09,25,2.10
2019,09,30,09,26,2.20
2019,09,30,09,27,2.20
2019,09,30,09,28,2.30
2019,09,30,09,29,2.30
2019,09,30,09,30,2.40
2019,09,30,09,31,2.50
2019,09,30,09,32,2.60
2019,09,30,09,33,2.60
2019,09,30,09,34,2.70
2019,09,30,09,35,2.70
2019,09,30,09,36,2.80
2019,09,30,09,37,2.90
2019,09,30,09,38,3.00
2019,09,30,09,39,3.00
2019,09,30,09,40,3.10
2019,09,30,09,41,3.20
2019,09,30,09,42,3.30
2019,09,30,09,43,3.40
2019,09,30,09,44,3.40
2019,09,30,09,45,3.50
2019,09,30,09,46,3.60
2019,09,30,09,47,3.60
2019,09,30,09,48,3.70
2019,09,30,09,49,3.80
2019,09,30,09,50,3.80
2019,09,30,09,51,3.90
2019,09,30,09,52,4.00
2019,09,30,09,53,4.10
2019,09,30,09,54,4.10
2019,09,30,09,55,4.20
2019,09,30,09,56,4.20
2019,09,30,09,57,4.30
2019,09,30,09,58,4.30
2019,09,30,09,59,4.30
2019,09,30,10,00,4.40
2019,09,30,10,01,4.40
2019,09,30,10,02,4.40
2019,09,30,10,03,4.40
2019,09,30,10,04,4.40
2019,09,30,10,05,4.40
2019,09,30,10,06,4.40
2019,09,30,10,07,4.50
2019,09,30,10,08,4.50
2019,09,30,10,09,4.60
2019,09,30,10,10,4.60
2019,09,30,10,11,4.70
2019,09,30,10,12,4.70
2019,09,30,10,13,4.80
2019,09,30,10,14,4.80
2019,09,30,10,15,4.90
2019,09,30,10,16,5.00
2019,09,30,10,17,5.10
2019,09,30,10,18,5.20
2019,09,30,10,19,5.20
2019,09,30,10,20,5.30
2019,09,30,10,21,5.50
2019,09,30,10,22,5.50
2019,09,30,10,23,5.60
2019,09,30,10,24,5.70
2019,09,30,10,25,5.80
2019,09,30,10,26,5.80
2019,09,30,10,27,5.80
2019,09,30,10,28,5.80
2019,09,30,10,29,5.90
2019,09,30,10,30,5.90
2019,09,30,10,31,5.90
2019,09,30,10,32,5.90
2019,09,30,10,33,5.90
2019,09,30,10,34,5.90
2019,09,30,10,35,5.90
2019,09,30,10,36,6.00
2019,09,30,10,37,6.00
2019,09,30,10,38,6.10
2019,09,30,10,39,6.20
2019,09,30,10,40,6.40
2019,09,30,10,41,6.50
2019,09,30,10,42,6.50
2019,09,30,10,43,6.50
2019,09,30,10,44,6.50
2019,09,30,10,45,6.50
2019,09,30,10,46,6.50
2019,09,30,10,47,6.50
2019,09,30,10,48,6.60
2019,09,30,10,49,6.60
2019,09,30,10,50,6.70
2019,09,30,10,51,6.80
2019,09,30,10,52,6.90
2019,09,30,10,53,7.00
2019,09,30,10,54,7.10
2019,09,30,10,55,7.20
2019,09,30,10,56,7.30
2019,09,30,10,57,7.30
2019,09,30,10,58,7.40
2019,09,30,10,59,7.50
2019,09,30,11,00,7.60
2019,09,30,11,01,7.60
2019,09,30,11,02,7.70
2019,09,30,11,03,7.70
2019,09,30,11,04,7.70
2019,09,30,11,05,7.70
2019,09,30,11,06,7.70
2019,09,30,11,07,7.70
2019,09,30,11,08,7.70
2019,09,30,11,09,7.70
2019,09,30,11,10,7.70
2019,09,30,11,11,7.80
2019,09,30,11,12,7.80
2019,09,30,11,13,7.90
2019,09,30,11,14,7.90
2019,09,30,11,15,8.00
2019,09,30,11,16,8.10
2019,09,30,11,17,8.10
2019,09,30,11,18,8.20
2019,09,30,11,19,8.30
2019,09,30,11,20,8.30
2019,09,30,11,21,8.40
2019,09,30,11,22,8.50
2019,09,30,11,23,8.60
2019,09,30,11,24,8.70
2019,09,30,11,25,8.90
2019,09,30,11,26,9.00
2019,09,30,11,27,9.10
2019,09,30,11,28,9.20
2019,09,30,11,29,9.20
2019,09,30,11,30,9.20
2019,09,30,11,31,9.20
2019,09,30,11,32,9.20
2019,09,30,11,33,9.20
2019,09,30,11,34,9.20
2019,09,30,11,35,9.20
2019,09,30,11,36,9.20
2019,09,30,11,37,9.20
2019,09,30,11,38,9.30
2019,09,30,11,39,9.30
2019,09,30,11,40,9.40
2019,09,30,11,41,9.50
2019,09,30,11,42,9.60
2019,09,30,11,43,9.70
2019,09,30,11,44,9.80
2019,09,30,11,45,9.80
2019,09,30,11,46,9.80
2019,09,30,11,47,9.80
2019,09,30,11,48,9.80
2019,09,30,11,49,9.90
2019,09,30,11,50,9.90
2019,09,30,11,51,10.00
2019,09,30,11,52,10.00
2019,09,30,11,53,10.10
2019,09,30,11,54,10.20
2019,09,30,11,55,10.30
2019,09,30,11,56,10.40
2019,09,30,11,57,10.50
2019,09,30,11,58,10.60
2019,09,30,11,59,10.70
2019,09,30,12,00,10.80
2019,09,30,12,01,10.90
2019,09,30,12,02,11.00
2019,09,30,12,03,11.00
2019,09,30,12,04,11.10
2019,09,30,12,05,11.10
2019,09,30,12,06,11.10
2019,09,30,12,07,11.10
2019,09,30,12,08,11.10
2019,09,30,12,09,11.20
2019,09,30,12,10,11.20
2019,09,30,12,11,11.20
2019,09,30,12,12,11.30
2019,09,30,12,13,11.40
2019,09,30,12,14,11.50
2019,09,30,12,15,11.60
2019,09,30,12,16,11.70
2019,09,30,12,17,11.80
2019,09,30,12,18,11.90
2019,09,30,12,19,11.90
2019,09,30,12,20,11.90
2019,09,30,12,21,11.90
2019,09,30,12,22,12.00
2019,09,30,12,23,12.00
2019,09,30,12,24,12.00
2019,09,30,12,25,12.00
2019,09,30,12,26,12.00
2019,09,30,12,27,11.90
2019,09,30,12,28,11.90
2019,09,30,12,29,11.90
2019,09,30,12,30,12.00
2019,09,30,12,31,12.10
2019,09,30,12,32,12.20
2019,09,30,12,33,12.30
2019,09,30,12,34,12.40
2019,09,30,12,35,12.50
2019,09,30,12,36,12.50
2019,09,30,12,37,12.50
2019,09,30,12,38,12.60
2019,09,30,12,39,12.60
2019,09,30,12,40,12.70
2019,09,30,12,41,12.80
2019,09,30,12,42,13.00
2019,09,30,12,43,13.10
2019,09,30,12,44,13.20
2019,09,30,12,45,13.30
2019,09,30,12,46,13.40
2019,09,30,12,47,13.40
2019,09,30,12,48,13.40
2019,09,30,12,49,13.40
2019,09,30,12,50,13.40
2019,09,30,12,51,13.40
2019,09,30,12,52,13.40
2019,09,30,12,53,13.40
2019,09,30,12,54,13.50
2019,09,30,12,55,13.60
2019,09,30,12,56,13.60
2019,09,30,12,57,13.70
2019,09,30,12,58,13.70
2019,09,30,12,59,13.70
2019,09,30,13,00,13.70
2019,09,30,13,01,13.70
2019,09,30,13,02,13.70
2019,09,30,13,03,13.70
2019,09,30,13,04,13.60
2019,09,30,13,05,13.60
2019,09,30,13,06,13.60
2019,09,30,13,07,13.70
2019,09,30,13,08,13.70
2019,09,30,13,09,13.80
2019,09,30,13,10,13.90
2019,09,30,13,11,13.90
2019,09,30,13,12,14.00
2019,09,30,13,13,14.10
2019,09,30,13,14,14.10
2019,09,30,13,15,14.10
2019,09,30,13,16,14.20
2019,09,30,13,17,14.20
2019,09,30,13,18,14.30
2019,09,30,13,19,14.40
2019,09,30,13,20,14.50
2019,09,30,13,21,14.60
2019,09,30,13,22,14.80
2019,09,30,13,23,14.90
2019,09,30,13,24,15.00
2019,09,30,13,25,15.00
2019,09,30,13,26,15.10
2019,09,30,13,27,15.00
2019,09,30,13,28,15.00
2019,09,30,13,29,14.90
2019,09,30,13,30,14.90
2019,09,30,13,31,14.90
2019,09,30,13,32,14.90
2019,09,30,13,33,15.00
2019,09,30,13,34,15.00
2019,09,30,13,35,15.00
2019,09,30,13,36,14.90
2019,09,30,13,37,14.90
2019,09,30,13,38,14.90
2019,09,30,13,39,14.90
2019,09,30,13,40,15.00
2019,09,30,13,41,15.00
2019,09,30,13,42,15.10
2019,09,30,13,43,15.10
2019,09,30,13,44,15.20
2019,09,30,13,45,15.20
2019,09,30,13,46,15.30
2019,09,30,13,47,15.30
2019,09,30,13,48,15.40
2019,09,30,13,49,15.50
2019,09,30,13,50,15.60
2019,09,30,13,51,15.70
2019,09,30,13,52,15.80
2019,09,30,13,53,15.90
2019,09,30,13,54,16.10
2019,09,30,13,55,16.20
2019,09,30,13,56,16.30
2019,09,30,13,57,16.40
2019,09,30,13,58,16.50
2019,09,30,13,59,16.50
2019,09,30,14,00,16.60
2019,09,30,14,01,16.60
2019,09,30,14,02,16.60
2019,09,30,14,03,16.70
2019,09,30,14,04,16.60
2019,09,30,14,05,16.70
2019,09,30,14,06,16.70
2019,09,30,14,07,16.70
2019,09,30,14,08,16.70
2019,09,30,14,09,16.70
2019,09,30,14,10,16.80
2019,09,30,14,11,16.80
2019,09,30,14,12,16.90
2019,09,30,14,13,16.90
2019,09,30,14,14,17.00
2019,09,30,14,15,17.10
2019,09,30,14,16,17.10
2019,09,30,14,17,17.00
2019,09,30,14,18,16.90
2019,09,30,14,19,16.90
2019,09,30,14,20,16.80
2019,09,30,14,21,16.80
2019,09,30,14,22,16.90
2019,09,30,14,23,16.90
2019,09,30,14,24,17.00
2019,09,30,14,25,17.10
2019,09,30,14,26,17.10
2019,09,30,14,27,17.20
2019,09,30,14,28,17.30
2019,09,30,14,29,17.30
2019,09,30,14,30,17.20
2019,09,30,14,31,17.00
2019,09,30,14,32,16.90
2019,09,30,14,33,16.80
2019,09,30,14,34,16.80
2019,09,30,14,35,16.70
2019,09,30,14,36,16.70
2019,09,30,14,37,16.70
2019,09,30,14,38,16.70
2019,09,30,14,39,16.70
2019,09,30,14,40,16.80
2019,09,30,14,41,16.90
2019,09,30,14,42,17.10
2019,09,30,14,43,17.20
2019,09,30,14,44,17.20
2019,09,30,14,45,17.20
2019,09,30,14,46,17.20
2019,09,30,14,47,17.20
2019,09,30,14,48,17.10
2019,09,30,14,49,17.10
2019,09,30,14,50,17.00
2019,09,30,14,51,17.00
2019,09,30,14,52,17.00
2019,09,30,14,53,17.00
2019,09,30,14,54,16.90
2019,09,30,14,55,16.90
2019,09,30,14,56,16.80
2019,09,30,14,57,16.80
2019,09,30,14,58,16.80
2019,09,30,14,59,16.80
2019,09,30,15,00,16.80
2019,09,30,15,01,16.70
2019,09,30,15,02,16.60
2019,09,30,15,03,16.60
2019,09,30,15,04,16.60
2019,09,30,15,05,16.60
2019,09,30,15,06,16.60
2019,09,30,15,07,16.60
2019,09,30,15,08,16.60
2019,09,30,15,09,16.70
2019,09,30,15,10,16.70
2019,09,30,15,11,16.70
2019,09,30,15,12,16.70
2019,09,30,15,13,16.80
2019,09,30,15,14,16.80
2019,09,30,15,15,16.80
2019,09,30,15,16,16.90
2019,09,30,15,17,16.90
2019,09,30,15,18,16.90
2019,09,30,15,19,17.00
2019,09,30,15,20,17.00
2019,09,30,15,21,17.10
2019,09,30,15,22,17.10
2019,09,30,15,23,17.10
2019,09,30,15,24,17.10
2019,09,30,15,25,17.00
2019,09,30,15,26,17.10
2019,09,30,15,27,17.10
2019,09,30,15,28,17.10
2019,09,30,15,29,17.20
2019,09,30,15,30,17.20
2019,09,30,15,31,17.30
2019,09,30,15,32,17.30
2019,09,30,15,33,17.20
2019,09,30,15,34,17.10
2019,09,30,15,35,17.10
2019,09,30,15,36,17.00
2019,09,30,15,37,17.00
2019,09,30,15,38,16.90
2019,09,30,15,39,16.90
2019,09,30,15,40,16.90
2019,09,30,15,41,16.90
2019,09,30,15,42,16.90
2019,09,30,15,43,16.80
2019,09,30,15,44,16.80
2019,09,30,15,45,16.80
2019,09,30,15,46,16.80
2019,09,30,15,47,16.80
2019,09,30,15,48,16.80
2019,09,30,15,49,16.80
2019,09,30,15,50,16.80
2019,09,30,15,51,16.90
2019,09,30,15,52,16.90
2019,09,30,15,53,16.90
2019,09,30,15,54,16.90
2019,09,30,15,55,16.90
2019,09,30,15,56,16.90
2019,09,30,15,57,16.90
2019,09,30,15,58,16.90
2019,09,30,15,59,16.80
2019,09,30,16,00,16.90
2019,09,30,16,01,16.90
2019,09,30,16,02,16.90
2019,09,30,16,03,16.90
2019,09,30,16,04,16.90
2019,09,30,16,05,16.90
2019,09,30,16,06,16.90
2019,09,30,16,07,16.90
2019,09,30,16,08,17.00
2019,09,30,16,09,17.00
2019,09,30,16,10,17.10
2019,09,30,16,11,17.10
2019,09,30,16,12,17.10
2019,09,30,16,13,17.00
2019,09,30,16,14,17.00
2019,09,30,16,15,16.90
2019,09,30,16,16,16.90
2019,09,30,16,17,16.90
2019,09,30,16,18,17.00
2019,09,30,16,19,17.00
2019,09,30,16,20,17.10
2019,09,30,16,21,17.00
2019,09,30,16,22,17.00
2019,09,30,16,23,17.00
2019,09,30,16,24,16.90
2019,09,30,16,25,16.90
2019,09,30,16,26,16.90
2019,09,30,16,27,16.90
2019,09,30,16,28,16.90
2019,09,30,16,29,16.90
2019,09,30,16,30,16.90
2019,09,30,16,31,16.90
2019,09,30,16,32,16.90
2019,09,30,16,33,17.00
2019,09,30,16,34,17.10
2019,09,30,16,35,17.10
2019,09,30,16,36,17.10
2019,09,30,16,37,17.10
2019,09,30,16,38,17.10
2019,09,30,16,39,17.10
2019,09,30,16,40,17.00
2019,09,30,16,41,17.00
2019,09,30,16,42,17.00
2019,09,30,16,43,16.90
2019,09,30,16,44,16.80
2019,09,30,16,45,16.80
2019,09,30,16,46,16.70
2019,09,30,16,47,16.70
2019,09,30,16,48,16.70
2019,09,30,16,49,16.70
2019,09,30,16,50,16.60
2019,09,30,16,51,16.60
2019,09,30,16,52,16.50
2019,09,30,16,53,16.50
2019,09,30,16,54,16.40
2019,09,30,16,55,16.40
2019,09,30,16,56,16.30
2019,09,30,16,57,16.30
2019,09,30,16,58,16.30
2019,09,30,16,59,16.30
2019,09,30,17,00,16.30
2019,09,30,17,01,16.30
2019,09,30,17,02,16.30
2019,09,30,17,03,16.30
2019,09,30,17,04,16.30
2019,09,30,17,05,16.30
2019,09,30,17,06,16.30
2019,09,30,17,07,16.30
2019,09,30,17,08,16.20
2019,09,30,17,09,16.20
2019,09,30,17,10,16.20
2019,09,30,17,11,16.20
2019,09,30,17,12,16.20
2019,09,30,17,13,16.20
2019,09,30,17,14,16.20
2019,09,30,17,15,16.10
2019,09,30,17,16,16.10
2019,09,30,17,17,16.00
2019,09,30,17,18,16.00
2019,09,30,17,19,15.90
2019,09,30,17,20,15.90
2019,09,30,17,21,15.80
2019,09,30,17,22,15.80
2019,09,30,17,23,15.80
2019,09,30,17,24,15.70
2019,09,30,17,25,15.70
2019,09,30,17,26,15.70
2019,09,30,17,27,15.70
2019,09,30,17,28,15.60
2019,09,30,17,29,15.60
2019,09,30,17,30,15.60
2019,09,30,17,31,15.60
2019,09,30,17,32,15.50
2019,09,30,17,33,15.40
2019,09,30,17,34,15.30
2019,09,30,17,35,15.20
2019,09,30,17,36,15.10
2019,09,30,17,37,15.00
2019,09,30,17,38,14.90
2019,09,30,17,39,14.80
2019,09,30,17,40,14.70
2019,09,30,17,41,14.60
2019,09,30,17,42,14.40
2019,09,30,17,43,14.30
2019,09,30,17,44,14.10
2019,09,30,17,45,14.00